Regional Weather Roundup
Issued by NWS

Home | Current Version | Previous Version | Graphics & Text | Print | Product List | Glossary On
Versions: 1 2 3 4 5 6 7 8 9 10 11 12 13 14 15 16 17 18 19 20 21 22 23 24 25 26 27 28 29 30 31 32 33 34 35 36 37 38 39 40 41 42 43 44 45 46 47 48 49 50
000
ASUS45 KABQ 251810
RWRNM
NEW MEXICO REGIONAL WEATHER ROUNDUP
NATIONAL WEATHER SERVICE ALBUQUERQUE NM
1200 PM MDT FRI MAY 25 2018

NOTE: "FAIR" MEANS FEW OR NO CLOUDS BELOW 12,000 FEET AGL WITH NO
       SIGNIFICANT WEATHER OR OBSTRUCTIONS TO VISION.

      THIS PRODUCT IS RELEASED AS TWO VERSIONS.  ONE VERSION NEAR
      THE TOP OF THE HOUR CONTAINING PRELIMINARY DATA FROM ALBUQUERQUE
      AND OTHER STATIONS.  A FINAL VERSION WITH ADDITIONAL DATA IS
      ISSUED ABOUT 10 MINUTES AFTER THE HOUR.

NMZ501-503-504-510>518-251900-
NORTHWEST PLATEAU/NORTHCENTRAL MOUNTAINS

CITY           SKY/WX    TMP DP  RH WIND       PRES   REMARKS
FARMINGTON     FAIR      78  18  10 VRB3      30.16F
6HR MIN TEMP:  45; 6HR MAX TEMP:  78;

LOS ALAMOS     FAIR      75  16  10 S3        30.28F
SANTA FE       FAIR      82  16   8 SW9       30.21F
6HR MIN TEMP:  45; 6HR MAX TEMP:  82;

TAOS           FAIR      78  16   9 VRB5      30.28F
ANGEL FIRE     FAIR      73  20  14 SW12G21   30.35S

$$
NMZ402-403-502-505>509-251900-
WESTCENTRAL MOUNTAINS/SOUTHWEST MOUNTAINS

CITY           SKY/WX    TMP DP  RH WIND       PRES   REMARKS
GALLUP         FAIR      78   9   7 SW13G18   30.24F
6HR MIN TEMP:  37; 6HR MAX TEMP:  79;


$$
NMZ407-409-411-412-251900-
SOUTHERN DESERTS

CITY           SKY/WX    TMP DP  RH WIND       PRES   REMARKS
DEMING         FAIR      89  15   6 SW8       30.13S
6HR MIN TEMP:  55; 6HR MAX TEMP:  90;

LAS CRUCES     FAIR      91  11   5 W3        30.14S
T OR C         FAIR      87  12   6 S6        30.14F
6HR MIN TEMP:  59; 6HR MAX TEMP:  87;


$$
NMZ519>523-251900-
CENTRAL VALLEYS/CENTRAL HIGHLANDS

CITY           SKY/WX    TMP DP  RH WIND       PRES   REMARKS
ALBUQUERQUE    FAIR      83  27  13 W7        30.17F
6HR MIN TEMP:  60; 6HR MAX TEMP:  83;

DOUBLE EAGLE   MOSUNNY   81  25  12 W6        30.21F
MORIARTY ARPT  FAIR      84  22  10 SW3       30.22S
6HR MIN TEMP:  40; 6HR MAX TEMP:  85;

CLINES CORNERS FAIR      79  23  12 NW9       30.27S
6HR MIN TEMP:  47; 6HR MAX TEMP:  80;

BELEN          NOT AVBL
SOCORRO        FAIR      85  21   9 CALM      30.14F
6HR MIN TEMP:  56; 6HR MAX TEMP:  85;


$$
NMZ524>526-539-540-251900-
SOUTHCENTRAL MOUNTAINS

CITY           SKY/WX    TMP DP  RH WIND       PRES   REMARKS
RUIDOSO        NOT AVBL

$$
NMZ527>531-251900-
NORTHEAST HIGHLANDS/NORTHEAST PLAINS

CITY           SKY/WX    TMP DP  RH WIND       PRES   REMARKS
LAS VEGAS      FAIR      82  17   9 SW10      30.21F
6HR MIN TEMP:  46; 6HR MAX TEMP:  83;

RATON          FAIR      83  28  13 MISG      30.15F
6HR MIN TEMP:  47; 6HR MAX TEMP:  83;

CLAYTON        FAIR      86  44  23 NE10      30.08F
6HR MIN TEMP:  57; 6HR MAX TEMP:  86;


$$
NMZ532>537-251900-
EASTCENTRAL PLAINS

CITY           SKY/WX    TMP DP  RH WIND       PRES   REMARKS
TUCUMCARI      FAIR      88  41  19 W5        30.01F
6HR MIN TEMP:  63; 6HR MAX TEMP:  89;

CANNON AFB     FAIR      88  39  17 W12       30.07F
6HR MIN TEMP:  63; 6HR MAX TEMP:  88;

CLOVIS AIRPORT FAIR      88  43  20 W13       30.06F

$$
NMZ028-029-538-251900-
SOUTHEAST PLAINS

CITY           SKY/WX    TMP DP  RH WIND       PRES   REMARKS
ROSWELL        FAIR      93  36  13 VRB5      30.03F
6HR MIN TEMP:  62; 6HR MAX TEMP:  93;

CARLSBAD       FAIR      94  50  22 VRB7      30.00F
6HR MIN TEMP:  59; 6HR MAX TEMP:  94;

HOBBS          SUNNY     93  39  15 SW8G17    30.04F


$$




USA.gov is the U.S. government's official web portal to all federal, state and local government web resources and services.